| time (UTC) | temp F | wind direction | speed MPH | gust MPH | rain 1hr in | rain 24hr in | rain mn in | humidity % | barometer mb |
| 20260509233035 | 68 | 140 | 1.0 | 3.0 | 0.00 | 0.00 | 0.00 | 43 | 1021.6 |
| 20260509232524 | 68 | 60 | 0.0 | 4.0 | 0.00 | 0.00 | 0.00 | 44 | 1021.6 |
| 20260509232033 | 67 | 218 | 1.0 | 4.0 | 0.00 | 0.00 | 0.00 | 45 | 1021.6 |
| 20260509231528 | 67 | 77 | 1.0 | 4.0 | 0.00 | 0.00 | 0.00 | 46 | 1021.6 |
| 20260509231036 | 67 | 202 | 1.0 | 4.0 | 0.00 | 0.00 | 0.00 | 44 | 1021.5 |
| 20260509230526 | 67 | 317 | 1.0 | 4.0 | 0.00 | 0.00 | 0.00 | 44 | 1021.6 |
| 20260509230021 | 67 | 333 | 0.0 | 4.0 | 0.00 | 0.00 | 0.00 | 44 | 1021.7 |
| 20260509225534 | 67 | 302 | 1.0 | 6.0 | 0.00 | 0.00 | 0.00 | 43 | 1021.6 |
| 20260509225024 | 67 | 19 | 0.0 | 6.0 | 0.00 | 0.00 | 0.00 | 45 | 1021.7 |
| 20260509224522 | 67 | 332 | 1.0 | 6.0 | 0.00 | 0.00 | 0.00 | 42 | 1021.7 |
| 20260509224030 | 67 | 91 | 1.0 | 6.0 | 0.00 | 0.00 | 0.00 | 45 | 1021.7 |
| 20260509223520 | 67 | 45 | 1.0 | 7.0 | 0.00 | 0.00 | 0.00 | 43 | 1021.7 |
| 20260509223020 | 67 | 309 | 1.0 | 7.0 | 0.00 | 0.00 | 0.00 | 47 | 1021.8 |
| 20260509222532 | 67 | 327 | 1.0 | 3.0 | 0.00 | 0.00 | 0.00 | 44 | 1021.8 |
| 20260509222037 | 67 | 336 | 1.0 | 4.0 | 0.00 | 0.00 | 0.00 | 45 | 1021.8 |
| 20260509221533 | 67 | 355 | 1.0 | 6.0 | 0.00 | 0.00 | 0.00 | 43 | 1021.9 |
| 20260509221022 | 67 | 330 | 1.0 | 4.0 | 0.00 | 0.00 | 0.00 | 46 | 1022.0 |
| 20260509220531 | 66 | 317 | 1.0 | 4.0 | 0.00 | 0.00 | 0.00 | 46 | 1022.0 |
| 20260509220028 | 67 | 173 | 1.0 | 4.0 | 0.00 | 0.00 | 0.00 | 46 | 1022.1 |
| 20260509215519 | 67 | 355 | 1.0 | 6.0 | 0.00 | 0.00 | 0.00 | 45 | 1022.2 |
| 20260509215027 | 67 | 38 | 1.0 | 6.0 | 0.00 | 0.00 | 0.00 | 43 | 1022.3 |
| 20260509214523 | 67 | 347 | 1.0 | 2.0 | 0.00 | 0.00 | 0.00 | 45 | 1022.5 |
| 20260509214018 | 67 | 115 | 1.0 | 4.0 | 0.00 | 0.00 | 0.00 | 44 | 1022.5 |
| 20260509213530 | 67 | 173 | 1.0 | 4.0 | 0.00 | 0.00 | 0.00 | 43 | 1022.6 |
| 20260509213025 | 66 | 12 | 0.0 | 5.0 | 0.00 | 0.00 | 0.00 | 47 | 1022.6 |
| 20260509212535 | 66 | 182 | 1.0 | 5.0 | 0.00 | 0.00 | 0.00 | 44 | 1022.6 |
| 20260509212026 | 66 | 126 | 1.0 | 4.0 | 0.00 | 0.00 | 0.00 | 46 | 1022.6 |
| 20260509211526 | 66 | 303 | 1.0 | 7.0 | 0.00 | 0.00 | 0.00 | 46 | 1022.6 |
| 20260509211033 | 65 | 336 | 1.0 | 7.0 | 0.00 | 0.00 | 0.00 | 47 | 1022.7 |
| 20260509210523 | 65 | 311 | 1.0 | 3.0 | 0.00 | 0.00 | 0.00 | 46 | 1022.8 |
| 20260509210019 | 65 | 163 | 1.0 | 4.0 | 0.00 | 0.00 | 0.00 | 48 | 1022.8 |
| 20260509205528 | 65 | 108 | 1.0 | 5.0 | 0.00 | 0.00 | 0.00 | 49 | 1022.8 |
| 20260509205021 | 65 | 15 | 1.0 | 5.0 | 0.00 | 0.00 | 0.00 | 49 | 1022.8 |
| 20260509204534 | 65 | 71 | 1.0 | 3.0 | 0.00 | 0.00 | 0.00 | 47 | 1022.8 |
| 20260509204025 | 65 | 53 | 1.0 | 4.0 | 0.00 | 0.00 | 0.00 | 50 | 1022.8 |
| 20260509203533 | 64 | 274 | 2.0 | 5.0 | 0.00 | 0.00 | 0.00 | 52 | 1022.9 |
| 20260509203031 | 64 | 317 | 1.0 | 4.0 | 0.00 | 0.00 | 0.00 | 50 | 1022.9 |
| 20260509202527 | 64 | 342 | 1.0 | 9.0 | 0.00 | 0.00 | 0.00 | 48 | 1022.9 |
| 20260509202032 | 64 | 78 | 2.0 | 9.0 | 0.00 | 0.00 | 0.00 | 51 | 1023.0 |
| 20260509201529 | 64 | 345 | 1.0 | 5.0 | 0.00 | 0.00 | 0.00 | 53 | 1023.2 |
| 20260509201018 | 64 | 49 | 1.0 | 7.0 | 0.00 | 0.00 | 0.00 | 53 | 1023.2 |
| 20260509200529 | 63 | 172 | 2.0 | 7.0 | 0.00 | 0.00 | 0.00 | 52 | 1023.3 |
| 20260509200030 | 63 | 342 | 1.0 | 8.0 | 0.00 | 0.00 | 0.00 | 54 | 1023.4 |
| 20260509195536 | 63 | 169 | 1.0 | 6.0 | 0.00 | 0.00 | 0.00 | 51 | 1023.4 |
| 20260509195023 | 63 | 326 | 1.0 | 4.0 | 0.00 | 0.00 | 0.00 | 54 | 1023.3 |
| 20260509194520 | 63 | 341 | 1.0 | 8.0 | 0.00 | 0.00 | 0.00 | 53 | 1023.5 |
| 20260509194031 | 63 | 92 | 2.0 | 8.0 | 0.00 | 0.00 | 0.00 | 53 | 1023.6 |
| 20260509193519 | 63 | 360 | 2.0 | 7.0 | 0.00 | 0.00 | 0.00 | 55 | 1023.6 |
| 20260509193035 | 62 | 342 | 2.0 | 7.0 | 0.00 | 0.00 | 0.00 | 54 | 1023.7 |
| 20260509192525 | 63 | 297 | 1.0 | 4.0 | 0.00 | 0.00 | 0.00 | 53 | 1023.8 |
| 20260509192037 | 62 | 80 | 1.0 | 5.0 | 0.00 | 0.00 | 0.00 | 53 | 1023.9 |
| 20260509191535 | 62 | 327 | 2.0 | 5.0 | 0.00 | 0.00 | 0.00 | 56 | 1023.9 |
| 20260509191026 | 62 | 5 | 1.0 | 4.0 | 0.00 | 0.00 | 0.00 | 55 | 1024.1 |
| 20260509190536 | 62 | 210 | 2.0 | 5.0 | 0.00 | 0.00 | 0.00 | 55 | 1024.0 |
| 20260509190038 | 61 | 315 | 2.0 | 4.0 | 0.00 | 0.00 | 0.00 | 55 | 1023.9 |
| 20260509185522 | 61 | 19 | 1.0 | 4.0 | 0.00 | 0.00 | 0.00 | 55 | 1024.0 |
| 20260509185031 | 61 | 5 | 2.0 | 6.0 | 0.00 | 0.00 | 0.00 | 56 | 1024.1 |
| 20260509184533 | 61 | 350 | 2.0 | 6.0 | 0.00 | 0.00 | 0.00 | 56 | 1024.1 |
| 20260509184034 | 61 | 304 | 1.0 | 4.0 | 0.00 | 0.00 | 0.00 | 57 | 1024.1 |
| 20260509183523 | 61 | 306 | 2.0 | 4.0 | 0.00 | 0.00 | 0.00 | 56 | 1024.0 |
| 20260509183019 | 61 | 282 | 2.0 | 5.0 | 0.00 | 0.00 | 0.00 | 57 | 1024.0 |
| 20260509182529 | 60 | 338 | 2.0 | 8.0 | 0.00 | 0.00 | 0.00 | 57 | 1024.0 |
| 20260509182018 | 60 | 71 | 2.0 | 9.0 | 0.00 | 0.00 | 0.00 | 58 | 1024.1 |
| 20260509181537 | 60 | 320 | 2.0 | 9.0 | 0.00 | 0.00 | 0.00 | 58 | 1024.1 |
| 20260509181030 | 60 | 168 | 2.0 | 7.0 | 0.00 | 0.00 | 0.00 | 59 | 1023.9 |
| 20260509180520 | 59 | 22 | 2.0 | 7.0 | 0.00 | 0.00 | 0.00 | 58 | 1024.0 |
| 20260509180034 | 59 | 22 | 1.0 | 6.0 | 0.00 | 0.00 | 0.00 | 59 | 1024.1 |
| 20260509175526 | 59 | 288 | 2.0 | 5.0 | 0.00 | 0.00 | 0.00 | 57 | 1024.2 |
| 20260509175035 | 59 | 33 | 1.0 | 8.0 | 0.00 | 0.00 | 0.00 | 59 | 1024.1 |
| 20260509174530 | 59 | 294 | 2.0 | 8.0 | 0.00 | 0.00 | 0.00 | 58 | 1024.1 |
| 20260509174037 | 59 | 5 | 2.0 | 7.0 | 0.00 | 0.00 | 0.00 | 57 | 1024.0 |
| 20260509173527 | 58 | 163 | 1.0 | 7.0 | 0.00 | 0.00 | 0.00 | 59 | 1024.0 |
| 20260509173052 | 58 | 19 | 2.0 | 7.0 | 0.00 | 0.00 | 0.00 | 59 | 1024.1 |
| 20260509172532 | 58 | 186 | 2.0 | 7.0 | 0.00 | 0.00 | 0.00 | 59 | 1024.0 |
| 20260509172022 | 58 | 334 | 2.0 | 7.0 | 0.00 | 0.00 | 0.00 | 60 | 1024.0 |
| 20260509171528 | 58 | 360 | 2.0 | 7.0 | 0.00 | 0.00 | 0.00 | 61 | 1024.0 |
| 20260509171027 | 58 | 40 | 1.0 | 7.0 | 0.00 | 0.00 | 0.00 | 61 | 1024.0 |
| 20260509170522 | 57 | 341 | 1.0 | 6.0 | 0.00 | 0.00 | 0.00 | 62 | 1024.1 |
| 20260509170020 | 57 | 63 | 2.0 | 6.0 | 0.00 | 0.00 | 0.00 | 61 | 1024.0 |
| 20260509165527 | 57 | 252 | 1.0 | 5.0 | 0.00 | 0.00 | 0.00 | 61 | 1024.1 |
| 20260509165018 | 57 | 65 | 2.0 | 10.0 | 0.00 | 0.00 | 0.00 | 60 | 1024.2 |
| 20260509164536 | 56 | 35 | 3.0 | 10.0 | 0.00 | 0.00 | 0.00 | 60 | 1024.1 |
| 20260509164026 | 57 | 147 | 1.0 | 4.0 | 0.00 | 0.00 | 0.00 | 60 | 1024.1 |
| 20260509163534 | 56 | 203 | 2.0 | 4.0 | 0.00 | 0.00 | 0.00 | 59 | 1024.1 |
| 20260509163032 | 56 | 51 | 2.0 | 7.0 | 0.00 | 0.00 | 0.00 | 60 | 1024.2 |
| 20260509162524 | 56 | 313 | 1.0 | 8.0 | 0.00 | 0.00 | 0.00 | 59 | 1024.0 |
| 20260509162031 | 56 | 180 | 2.0 | 8.0 | 0.00 | 0.00 | 0.00 | 61 | 1024.1 |
| 20260509161527 | 55 | 343 | 2.0 | 7.0 | 0.00 | 0.00 | 0.00 | 60 | 1024.0 |
| 20260509161035 | 55 | 44 | 2.0 | 7.0 | 0.00 | 0.00 | 0.00 | 60 | 1024.0 |
| 20260509160525 | 55 | 338 | 2.0 | 5.0 | 0.00 | 0.00 | 0.00 | 62 | 1023.9 |
| 20260509160023 | 54 | 25 | 2.0 | 9.0 | 0.00 | 0.00 | 0.00 | 62 | 1023.9 |
| 20260509155530 | 54 | 146 | 3.0 | 9.0 | 0.00 | 0.00 | 0.00 | 62 | 1024.0 |
| 20260509155024 | 54 | 355 | 2.0 | 9.0 | 0.00 | 0.00 | 0.00 | 62 | 1023.9 |
| 20260509154522 | 54 | 355 | 2.0 | 7.0 | 0.00 | 0.00 | 0.00 | 62 | 1023.8 |
| 20260509154032 | 53 | 201 | 3.0 | 9.0 | 0.00 | 0.00 | 0.00 | 62 | 1023.7 |
| 20260509153522 | 53 | 15 | 2.0 | 9.0 | 0.00 | 0.00 | 0.00 | 64 | 1023.8 |
| 20260509153029 | 53 | 124 | 4.0 | 9.0 | 0.00 | 0.00 | 0.00 | 64 | 1023.7 |
| 20260509152527 | 53 | 308 | 3.0 | 9.0 | 0.00 | 0.00 | 0.00 | 64 | 1023.7 |
| 20260509152038 | 53 | 101 | 3.0 | 9.0 | 0.00 | 0.00 | 0.00 | 64 | 1023.6 |
| 20260509151530 | 52 | 19 | 3.0 | 11.0 | 0.00 | 0.00 | 0.00 | 63 | 1023.6 |
| 20260509151027 | 52 | 42 | 3.0 | 8.0 | 0.00 | 0.00 | 0.00 | 65 | 1023.5 |
| 20260509150530 | 52 | 133 | 3.0 | 8.0 | 0.00 | 0.00 | 0.00 | 63 | 1023.4 |
| 20260509150026 | 52 | 163 | 2.0 | 9.0 | 0.00 | 0.00 | 0.00 | 65 | 1023.4 |
| 20260509145537 | 52 | 355 | 2.0 | 9.0 | 0.00 | 0.00 | 0.00 | 65 | 1023.3 |
| 20260509145026 | 52 | 149 | 4.0 | 8.0 | 0.00 | 0.00 | 0.00 | 64 | 1023.3 |
| 20260509144524 | 52 | 360 | 2.0 | 11.0 | 0.00 | 0.00 | 0.00 | 64 | 1023.3 |
| 20260509144036 | 52 | 180 | 4.0 | 11.0 | 0.00 | 0.00 | 0.00 | 66 | 1023.2 |
| 20260509143529 | 52 | 88 | 3.0 | 8.0 | 0.00 | 0.00 | 0.00 | 66 | 1023.2 |
| 20260509143022 | 51 | 5 | 2.0 | 8.0 | 0.00 | 0.00 | 0.00 | 67 | 1023.2 |
| 20260509142531 | 51 | 70 | 2.0 | 7.0 | 0.00 | 0.00 | 0.00 | 67 | 1023.1 |
| 20260509142019 | 51 | 55 | 2.0 | 5.0 | 0.00 | 0.00 | 0.00 | 68 | 1023.1 |
| 20260509141538 | 51 | 284 | 1.0 | 4.0 | 0.00 | 0.00 | 0.00 | 69 | 1023.1 |
| 20260509141026 | 51 | 43 | 0.0 | 4.0 | 0.00 | 0.00 | 0.00 | 69 | 1023.1 |
| 20260509140537 | 50 | 5 | 1.0 | 4.0 | 0.00 | 0.00 | 0.00 | 67 | 1023.0 |
| 20260509140030 | 50 | 344 | 1.0 | 4.0 | 0.00 | 0.00 | 0.00 | 70 | 1023.0 |
| 20260509135521 | 50 | 51 | 1.0 | 4.0 | 0.00 | 0.00 | 0.00 | 70 | 1022.9 |
| 20260509135029 | 50 | 38 | 1.0 | 6.0 | 0.00 | 0.00 | 0.00 | 70 | 1022.7 |
| 20260509134526 | 50 | 309 | 1.0 | 6.0 | 0.00 | 0.00 | 0.00 | 68 | 1022.6 |
| 20260509134035 | 50 | 235 | 1.0 | 6.0 | 0.00 | 0.00 | 0.00 | 63 | 1022.5 |
| 20260509133527 | 50 | 277 | 1.0 | 7.0 | 0.00 | 0.00 | 0.00 | 63 | 1022.6 |
| 20260509133025 | 50 | 51 | 2.0 | 7.0 | 0.00 | 0.00 | 0.00 | 65 | 1022.5 |
| 20260509132534 | 49 | 5 | 3.0 | 7.0 | 0.00 | 0.00 | 0.00 | 66 | 1022.5 |
| 20260509132023 | 49 | 350 | 1.0 | 7.0 | 0.00 | 0.00 | 0.00 | 64 | 1022.4 |
| 20260509131519 | 49 | 36 | 2.0 | 7.0 | 0.00 | 0.00 | 0.00 | 64 | 1022.3 |
| 20260509131031 | 49 | 42 | 2.0 | 7.0 | 0.00 | 0.00 | 0.00 | 65 | 1022.3 |
| 20260509130521 | 49 | 148 | 2.0 | 7.0 | 0.00 | 0.00 | 0.00 | 65 | 1022.2 |
| 20260509130055 | 49 | 45 | 2.0 | 6.0 | 0.00 | 0.00 | 0.00 | 66 | 1022.1 |
| 20260509125524 | 49 | 303 | 2.0 | 6.0 | 0.00 | 0.00 | 0.00 | 66 | 1022.1 |
| 20260509125032 | 49 | 141 | 2.0 | 6.0 | 0.00 | 0.00 | 0.00 | 67 | 1022.0 |
| 20260509124534 | 49 | 31 | 2.0 | 7.0 | 0.00 | 0.00 | 0.00 | 64 | 1021.9 |
| 20260509124022 | 49 | 355 | 2.0 | 7.0 | 0.00 | 0.00 | 0.00 | 64 | 1021.9 |
| 20260509123530 | 49 | 327 | 2.0 | 7.0 | 0.00 | 0.00 | 0.00 | 63 | 1021.9 |
| 20260509123046 | 49 | 350 | 2.0 | 7.0 | 0.00 | 0.00 | 0.00 | 65 | 1021.8 |
| 20260509122521 | 49 | 318 | 2.0 | 7.0 | 0.00 | 0.00 | 0.00 | 64 | 1021.8 |
| 20260509122032 | 49 | 34 | 2.0 | 7.0 | 0.00 | 0.00 | 0.00 | 63 | 1021.7 |
| 20260509121531 | 50 | 221 | 2.0 | 7.0 | 0.00 | 0.00 | 0.00 | 64 | 1021.7 |
| 20260509121019 | 50 | 118 | 2.0 | 7.0 | 0.00 | 0.00 | 0.00 | 63 | 1021.6 |
| 20260509120528 | 50 | 310 | 2.0 | 6.0 | 0.00 | 0.00 | 0.00 | 62 | 1021.5 |
| 20260509120029 | 50 | 99 | 2.0 | 5.0 | 0.00 | 0.00 | 0.00 | 62 | 1021.4 |
| 20260509115532 | 50 | 38 | 2.0 | 7.0 | 0.00 | 0.00 | 0.00 | 62 | 1021.4 |
| 20260509115023 | 50 | 65 | 2.0 | 7.0 | 0.00 | 0.00 | 0.00 | 64 | 1021.3 |
| 20260509114520 | 50 | 5 | 3.0 | 7.0 | 0.00 | 0.00 | 0.00 | 62 | 1021.3 |
| 20260509114027 | 50 | 32 | 2.0 | 6.0 | 0.00 | 0.00 | 0.00 | 63 | 1021.4 |
| 20260509113537 | 50 | 311 | 2.0 | 7.0 | 0.00 | 0.00 | 0.00 | 62 | 1021.3 |
| 20260509113033 | 50 | 132 | 2.0 | 7.0 | 0.00 | 0.00 | 0.00 | 61 | 1021.2 |
| 20260509112522 | 50 | 76 | 2.0 | 7.0 | 0.00 | 0.00 | 0.00 | 59 | 1021.1 |
| 20260509112030 | 50 | 5 | 2.0 | 6.0 | 0.00 | 0.00 | 0.00 | 62 | 1021.1 |
| 20260509111528 | 50 | 122 | 2.0 | 6.0 | 0.00 | 0.00 | 0.00 | 60 | 1021.1 |
| 20260509111020 | 50 | 262 | 2.0 | 6.0 | 0.00 | 0.00 | 0.00 | 61 | 1020.9 |
| 20260509110528 | 51 | 288 | 2.0 | 8.0 | 0.00 | 0.00 | 0.00 | 61 | 1020.9 |
| 20260509110027 | 51 | 57 | 3.0 | 10.0 | 0.00 | 0.00 | 0.00 | 60 | 1020.8 |
| 20260509105532 | 51 | 55 | 2.0 | 10.0 | 0.00 | 0.00 | 0.00 | 61 | 1020.7 |
| 20260509105022 | 51 | 37 | 1.0 | 5.0 | 0.00 | 0.00 | 0.00 | 59 | 1020.7 |
| 20260509104520 | 51 | 355 | 1.0 | 8.0 | 0.00 | 0.00 | 0.00 | 59 | 1020.6 |
| 20260509104030 | 51 | 306 | 2.0 | 9.0 | 0.00 | 0.00 | 0.00 | 58 | 1020.5 |
| 20260509103519 | 51 | 42 | 2.0 | 9.0 | 0.00 | 0.00 | 0.00 | 59 | 1020.3 |
| 20260509103037 | 51 | 9 | 2.0 | 8.0 | 0.00 | 0.00 | 0.00 | 60 | 1020.3 |
| 20260509102525 | 50 | 21 | 2.0 | 7.0 | 0.00 | 0.00 | 0.00 | 64 | 1020.1 |
| 20260509102037 | 49 | 36 | 4.0 | 8.0 | 0.00 | 0.00 | 0.00 | 73 | 1020.0 |
| 20260509101547 | 48 | 177 | 3.0 | 8.0 | 0.00 | 0.00 | 0.00 | 74 | 1020.0 |
| 20260509101021 | 48 | 187 | 4.0 | 6.0 | 0.00 | 0.00 | 0.00 | 76 | 1019.9 |
| 20260509100533 | 48 | 231 | 2.0 | 6.0 | 0.00 | 0.00 | 0.00 | 72 | 1019.9 |
| 20260509100030 | 49 | 219 | 3.0 | 6.0 | 0.00 | 0.00 | 0.00 | 71 | 1019.6 |
| 20260509095518 | 51 | 133 | 2.0 | 6.0 | 0.00 | 0.00 | 0.00 | 65 | 1019.6 |
| 20260509095028 | 51 | 18 | 2.0 | 6.0 | 0.00 | 0.00 | 0.00 | 66 | 1019.5 |
| 20260509094530 | 52 | 180 | 3.0 | 6.0 | 0.00 | 0.00 | 0.00 | 65 | 1019.5 |
| 20260509094035 | 51 | 11 | 2.0 | 4.0 | 0.00 | 0.00 | 0.00 | 62 | 1019.5 |
| 20260509093523 | 49 | 29 | 1.0 | 5.0 | 0.00 | 0.00 | 0.00 | 67 | 1019.5 |
| 20260509093020 | 48 | 190 | 2.0 | 5.0 | 0.00 | 0.00 | 0.00 | 74 | 1019.5 |
| 20260509092528 | 49 | 298 | 1.0 | 5.0 | 0.00 | 0.00 | 0.00 | 70 | 1019.5 |
| 20260509092017 | 50 | 222 | 2.0 | 5.0 | 0.00 | 0.00 | 0.00 | 68 | 1019.5 |
| 20260509091541 | 52 | 225 | 3.0 | 8.0 | 0.00 | 0.00 | 0.00 | 64 | 1019.5 |
| 20260509091025 | 53 | 355 | 1.0 | 8.0 | 0.00 | 0.00 | 0.00 | 57 | 1019.3 |
| 20260509090534 | 53 | 52 | 2.0 | 6.0 | 0.00 | 0.00 | 0.00 | 65 | 1019.3 |
| 20260509090026 | 53 | 286 | 2.0 | 4.0 | 0.00 | 0.00 | 0.00 | 64 | 1019.4 |
| 20260509085521 | 53 | 5 | 2.0 | 6.0 | 0.00 | 0.00 | 0.00 | 62 | 1019.3 |
| 20260509085028 | 53 | 229 | 3.0 | 6.0 | 0.00 | 0.00 | 0.00 | 59 | 1019.2 |
| 20260509084528 | 53 | 215 | 4.0 | 7.0 | 0.00 | 0.00 | 0.00 | 57 | 1019.2 |
| 20260509084033 | 53 | 181 | 2.0 | 7.0 | 0.00 | 0.00 | 0.00 | 60 | 1019.1 |
| 20260509083523 | 52 | 122 | 2.0 | 7.0 | 0.00 | 0.00 | 0.00 | 59 | 1019.1 |
| 20260509083019 | 49 | 186 | 1.0 | 5.0 | 0.00 | 0.00 | 0.00 | 70 | 1019.1 |
| 20260509082529 | 49 | 229 | 0.0 | 4.0 | 0.00 | 0.00 | 0.00 | 76 | 1019.0 |
| 20260509082018 | 50 | 275 | 1.0 | 6.0 | 0.00 | 0.00 | 0.00 | 73 | 1019.0 |
| 20260509081536 | 52 | 212 | 4.0 | 6.0 | 0.00 | 0.00 | 0.00 | 66 | 1018.9 |
| 20260509081022 | 54 | 211 | 3.0 | 7.0 | 0.00 | 0.00 | 0.00 | 62 | 1018.9 |
| 20260509080532 | 53 | 113 | 3.0 | 7.0 | 0.00 | 0.00 | 0.00 | 61 | 1018.9 |
| 20260509080028 | 53 | 12 | 2.0 | 4.0 | 0.00 | 0.00 | 0.00 | 64 | 1018.8 |
| 20260509075536 | 52 | 34 | 1.0 | 4.0 | 0.00 | 0.00 | 0.00 | 72 | 1018.8 |
| 20260509075027 | 51 | 205 | 0.0 | 4.0 | 0.00 | 0.00 | 0.00 | 71 | 1018.7 |
| 20260509074520 | 49 | 164 | 0.0 | 4.0 | 0.00 | 0.00 | 0.00 | 76 | 1018.7 |
| 20260509074038 | 48 | 229 | 0.0 | 3.0 | 0.00 | 0.00 | 0.00 | 81 | 1018.8 |
| 20260509073524 | 48 | 238 | 0.0 | 5.0 | 0.00 | 0.00 | 0.00 | 81 | 1018.7 |
| 20260509073023 | 49 | 243 | 2.0 | 5.0 | 0.00 | 0.00 | 0.00 | 82 | 1018.7 |
| 20260509072533 | 49 | 232 | 2.0 | 4.0 | 0.00 | 0.00 | 0.00 | 81 | 1018.6 |
| 20260509072021 | 50 | 229 | 3.0 | 4.0 | 0.00 | 0.00 | 0.00 | 81 | 1018.4 |
| 20260509071518 | 50 | 230 | 1.0 | 3.0 | 0.00 | 0.00 | 0.00 | 82 | 1018.4 |
| 20260509071026 | 50 | 253 | 0.0 | 2.0 | 0.00 | 0.00 | 0.00 | 81 | 1018.4 |
| 20260509070539 | 51 | 232 | 0.0 | 0.0 | 0.00 | 0.00 | 0.00 | 79 | 1018.3 |
| 20260509070029 | 50 | 219 | 0.0 | 0.0 | 0.00 | 0.00 | 0.00 | 78 | 1018.3 |
| 20260509065520 | 50 | 240 | 0.0 | 0.0 | 0.00 | 0.00 | 0.00 | 80 | 1018.2 |
| 20260509065030 | 49 | 247 | 0.0 | 0.0 | 0.00 | 0.00 | 0.00 | 79 | 1018.1 |
| 20260509064527 | 50 | 254 | 0.0 | 2.0 | 0.00 | 0.00 | 0.00 | 80 | 1018.0 |
| 20260509064034 | 50 | 246 | 1.0 | 4.0 | 0.00 | 0.00 | 0.00 | 80 | 1017.9 |
| 20260509063529 | 51 | 237 | 1.0 | 4.0 | 0.00 | 0.00 | 0.00 | 78 | 1017.8 |
| 20260509063033 | 52 | 197 | 2.0 | 4.0 | 0.00 | 0.00 | 0.00 | 76 | 1017.8 |
| 20260509062534 | 51 | 211 | 2.0 | 8.0 | 0.00 | 0.00 | 0.00 | 76 | 1017.7 |
| 20260509062022 | 53 | 211 | 4.0 | 8.0 | 0.00 | 0.00 | 0.00 | 75 | 1017.7 |
| 20260509061522 | 53 | 236 | 1.0 | 4.0 | 0.00 | 0.00 | 0.00 | 74 | 1017.6 |
| 20260509061028 | 53 | 131 | 1.0 | 5.0 | 0.00 | 0.00 | 0.00 | 75 | 1017.6 |
| 20260509060519 | 53 | 136 | 1.0 | 5.0 | 0.00 | 0.00 | 0.00 | 74 | 1017.7 |
| 20260509060036 | 54 | 196 | 1.0 | 5.0 | 0.00 | 0.00 | 0.00 | 73 | 1017.7 |
| 20260509055524 | 55 | 242 | 1.0 | 5.0 | 0.00 | 0.00 | 0.00 | 69 | 1017.7 |
| 20260509055034 | 55 | 181 | 0.0 | 2.0 | 0.00 | 0.00 | 0.00 | 67 | 1017.6 |
| 20260509054537 | 55 | 360 | 0.0 | 2.0 | 0.00 | 0.00 | 0.00 | 68 | 1017.6 |
| 20260509054023 | 55 | 355 | 0.0 | 3.0 | 0.00 | 0.00 | 0.00 | 71 | 1017.6 |
| 20260509053529 | 55 | 76 | 0.0 | 3.0 | 0.00 | 0.00 | 0.00 | 69 | 1017.6 |
| 20260509053024 | 55 | 236 | 0.0 | 2.0 | 0.00 | 0.00 | 0.00 | 66 | 1017.7 |
| 20260509052519 | 56 | 345 | 0.0 | 2.0 | 0.00 | 0.00 | 0.00 | 65 | 1017.7 |
| 20260509052032 | 56 | 204 | 0.0 | 2.0 | 0.00 | 0.00 | 0.00 | 66 | 1017.7 |
| 20260509051523 | 55 | 208 | 0.0 | 2.0 | 0.00 | 0.00 | 0.00 | 65 | 1017.6 |
| 20260509051036 | 55 | 101 | 0.0 | 2.0 | 0.00 | 0.00 | 0.00 | 65 | 1017.5 |
| 20260509050523 | 56 | 59 | 0.0 | 3.0 | 0.00 | 0.00 | 0.00 | 68 | 1017.6 |
| 20260509050025 | 56 | 17 | 0.0 | 3.0 | 0.00 | 0.00 | 0.00 | 67 | 1017.5 |
| 20260509045526 | 56 | 252 | 1.0 | 3.0 | 0.00 | 0.00 | 0.00 | 67 | 1017.5 |
| 20260509045038 | 56 | 69 | 1.0 | 3.0 | 0.00 | 0.00 | 0.00 | 67 | 1017.4 |
| 20260509044531 | 56 | 332 | 0.0 | 3.0 | 0.00 | 0.00 | 0.00 | 66 | 1017.5 |
| 20260509044021 | 55 | 248 | 0.0 | 4.0 | 0.00 | 0.00 | 0.00 | 69 | 1017.4 |
| 20260509043529 | 54 | 198 | 2.0 | 4.0 | 0.00 | 0.00 | 0.00 | 72 | 1017.4 |
| 20260509043025 | 54 | 182 | 0.0 | 4.0 | 0.00 | 0.00 | 0.00 | 70 | 1017.4 |
| 20260509042535 | 55 | 176 | 1.0 | 4.0 | 0.00 | 0.00 | 0.00 | 69 | 1017.4 |
| 20260509042024 | 55 | 193 | 1.0 | 3.0 | 0.00 | 0.00 | 0.00 | 69 | 1017.2 |
| 20260509041523 | 55 | 214 | 0.0 | 3.0 | 0.00 | 0.00 | 0.00 | 66 | 1017.4 |
| 20260509041033 | 55 | 229 | 1.0 | 5.0 | 0.00 | 0.00 | 0.00 | 68 | 1017.3 |
| 20260509040525 | 55 | 213 | 2.0 | 4.0 | 0.00 | 0.00 | 0.00 | 69 | 1017.2 |
| 20260509040042 | 55 | 201 | 0.0 | 0.0 | 0.00 | 0.00 | 0.00 | 70 | 1017.3 |
| 20260509035526 | 55 | 207 | 0.0 | 0.0 | 0.00 | 0.00 | 0.00 | 70 | 1017.4 |
| 20260509035037 | 56 | 178 | 0.0 | 0.0 | 0.00 | 0.00 | 0.00 | 68 | 1017.3 |
| 20260509034533 | 56 | 157 | 0.0 | 0.0 | 0.00 | 0.00 | 0.00 | 66 | 1017.3 |
| 20260509034019 | 57 | 157 | 0.0 | 0.0 | 0.00 | 0.00 | 0.00 | 64 | 1017.1 |
| 20260509033530 | 58 | 156 | 0.0 | 0.0 | 0.00 | 0.00 | 0.00 | 64 | 1017.0 |
| 20260509033026 | 58 | 151 | 0.0 | 0.0 | 0.00 | 0.00 | 0.00 | 59 | 1017.0 |
| 20260509032534 | 58 | 115 | 0.0 | 0.0 | 0.00 | 0.00 | 0.00 | 58 | 1017.0 |
| 20260509032026 | 58 | 115 | 0.0 | 0.0 | 0.00 | 0.00 | 0.00 | 58 | 1016.9 |
| 20260509031528 | 58 | 115 | 0.0 | 0.0 | 0.00 | 0.00 | 0.00 | 55 | 1016.8 |
| 20260509031030 | 59 | 114 | 0.0 | 3.0 | 0.00 | 0.00 | 0.00 | 52 | 1016.9 |
| 20260509030523 | 60 | 212 | 0.0 | 5.0 | 0.00 | 0.00 | 0.00 | 54 | 1016.7 |
| 20260509030019 | 60 | 190 | 2.0 | 5.0 | 0.00 | 0.00 | 0.00 | 47 | 1016.8 |
| 20260509025529 | 60 | 175 | 1.0 | 5.0 | 0.00 | 0.00 | 0.00 | 54 | 1016.7 |
| 20260509025019 | 61 | 180 | 2.0 | 5.0 | 0.00 | 0.00 | 0.00 | 53 | 1016.5 |
| 20260509024535 | 61 | 349 | 0.0 | 4.0 | 0.00 | 0.00 | 0.00 | 50 | 1016.5 |
| 20260509024029 | 62 | 194 | 0.0 | 3.0 | 0.00 | 0.00 | 0.00 | 47 | 1016.6 |
| 20260509023534 | 62 | 13 | 0.0 | 3.0 | 0.00 | 0.00 | 0.00 | 47 | 1016.6 |
| 20260509023030 | 63 | 355 | 0.0 | 2.0 | 0.00 | 0.00 | 0.00 | 45 | 1016.6 |
| 20260509022520 | 63 | 355 | 0.0 | 2.0 | 0.00 | 0.00 | 0.00 | 45 | 1016.7 |
| 20260509022029 | 63 | 126 | 0.0 | 2.0 | 0.00 | 0.00 | 0.00 | 49 | 1016.8 |
| 20260509021525 | 63 | 248 | 1.0 | 3.0 | 0.00 | 0.00 | 0.00 | 48 | 1016.7 |
| 20260509021034 | 63 | 134 | 1.0 | 5.0 | 0.00 | 0.00 | 0.00 | 45 | 1016.8 |
| 20260509020524 | 63 | 158 | 2.0 | 5.0 | 0.00 | 0.00 | 0.00 | 45 | 1016.9 |
| 20260509020019 | 64 | 119 | 0.0 | 7.0 | 0.00 | 0.00 | 0.00 | 46 | 1016.8 |
| 20260509015528 | 64 | 193 | 4.0 | 7.0 | 0.00 | 0.00 | 0.00 | 43 | 1016.8 |
| 20260509015023 | 64 | 122 | 2.0 | 6.0 | 0.00 | 0.00 | 0.00 | 45 | 1016.8 |
| 20260509014533 | 64 | 195 | 0.0 | 5.0 | 0.00 | 0.00 | 0.00 | 42 | 1016.8 |
| 20260509014028 | 64 | 183 | 2.0 | 6.0 | 0.00 | 0.00 | 0.00 | 44 | 1016.9 |
| 20260509013518 | 64 | 188 | 4.0 | 9.0 | 0.00 | 0.00 | 0.00 | 43 | 1016.9 |
| 20260509013036 | 64 | 190 | 5.0 | 9.0 | 0.00 | 0.00 | 0.00 | 42 | 1016.9 |
| 20260509012526 | 63 | 252 | 6.0 | 9.0 | 0.00 | 0.00 | 0.00 | 44 | 1017.0 |
| 20260509012034 | 64 | 199 | 5.0 | 9.0 | 0.00 | 0.00 | 0.00 | 44 | 1017.1 |
| 20260509011530 | 64 | 206 | 5.0 | 11.0 | 0.00 | 0.00 | 0.00 | 45 | 1017.1 |
| 20260509011018 | 64 | 171 | 7.0 | 11.0 | 0.00 | 0.00 | 0.00 | 43 | 1017.1 |
| 20260509010528 | 64 | 187 | 7.0 | 12.0 | 0.00 | 0.00 | 0.00 | 43 | 1017.0 |
| 20260509010027 | 64 | 180 | 7.0 | 12.0 | 0.00 | 0.00 | 0.00 | 44 | 1017.0 |
| 20260509005530 | 64 | 228 | 8.0 | 12.0 | 0.00 | 0.00 | 0.00 | 45 | 1016.9 |
| 20260509005018 | 64 | 155 | 8.0 | 14.0 | 0.00 | 0.00 | 0.00 | 44 | 1016.9 |
| 20260509004535 | 64 | 149 | 10.0 | 14.0 | 0.00 | 0.00 | 0.00 | 44 | 1017.0 |
| 20260509004028 | 65 | 212 | 8.0 | 14.0 | 0.00 | 0.00 | 0.00 | 43 | 1016.9 |
| 20260509003536 | 64 | 198 | 10.0 | 14.0 | 0.00 | 0.00 | 0.00 | 46 | 1016.9 |
| 20260509003031 | 65 | 175 | 7.0 | 13.0 | 0.00 | 0.00 | 0.00 | 45 | 1016.8 |
| 20260509002522 | 65 | 151 | 9.0 | 12.0 | 0.00 | 0.00 | 0.00 | 43 | 1016.7 |
| 20260509002030 | 65 | 175 | 5.0 | 9.0 | 0.00 | 0.00 | 0.00 | 43 | 1016.8 |
| 20260509001531 | 65 | 235 | 4.0 | 8.0 | 0.00 | 0.00 | 0.00 | 39 | 1016.8 |
| 20260509001036 | 65 | 180 | 4.0 | 11.0 | 0.00 | 0.00 | 0.00 | 42 | 1016.9 |
| 20260509000525 | 65 | 211 | 6.0 | 12.0 | 0.00 | 0.00 | 0.00 | 41 | 1016.9 |
| 20260509000021 | 65 | 207 | 9.0 | 14.0 | 0.00 | 0.00 | 0.00 | 39 | 1016.9 |
| 20260508235532 | 65 | 214 | 5.0 | 12.0 | 0.00 | 0.00 | 0.00 | 39 | 1016.9 |
| 20260508235021 | 66 | 246 | 4.0 | 10.0 | 0.00 | 0.00 | 0.00 | 39 | 1017.0 |
| 20260508234519 | 66 | 51 | 4.0 | 10.0 | 0.00 | 0.00 | 0.00 | 38 | 1016.8 |
| 20260508234027 | 65 | 169 | 5.0 | 10.0 | 0.00 | 0.00 | 0.00 | 44 | 1016.8 |